This is the latest recevied weather packets stored in our database for station/object K0SDS. If no packets are shown the sender has not sent any weather packets the latest 10 day(s).
| Time | Temp. | Humidity | Pressure | Rain* | Wind** | Luminosity | Snow |
|---|---|---|---|---|---|---|---|
| 1777512955 | 11.67° C | 71% | 1018 hPa | 0 mm | - | 0 W/m² | - |
| 1777512652 | 11.67° C | 70% | 1018.1 hPa | 0 mm | - | 0 W/m² | - |
| 1777512349 | 12.22° C | 66% | 1018.1 hPa | 0 mm | - | 0 W/m² | - |
| 1777512045 | 12.78° C | 66% | 1017.8 hPa | 0 mm | - | 0 W/m² | - |
| 1777511744 | 12.78° C | 64% | 1017.9 hPa | 0 mm | - | 1 W/m² | - |
| 1777511441 | 13.33° C | 63% | 1018.1 hPa | 0 mm | - | 2 W/m² | - |
| 1777511138 | 13.89° C | 62% | 1017.9 hPa | 0 mm | - | 5 W/m² | - |
| 1777510833 | 14.44° C | 60% | 1017.8 hPa | 0 mm | - | 9 W/m² | - |
| 1777510530 | 15° C | 58% | 1017.8 hPa | 0 mm | - | 12 W/m² | - |
| 1777510226 | 15° C | 55% | 1017.7 hPa | 0 mm | - | 17 W/m² | - |
| 1777509923 | 15.56° C | 54% | 1017.6 hPa | 0 mm | - | 22 W/m² | - |
| 1777509618 | 15.56° C | 52% | 1017.4 hPa | 0 mm | - | 26 W/m² | - |
| 1777509315 | 15.56° C | 52% | 1017.5 hPa | 0 mm | - | 31 W/m² | - |
| 1777509013 | 16.11° C | 51% | 1017.6 hPa | 0 mm | - | 35 W/m² | - |
| 1777508710 | 16.67° C | 50% | 1017.5 hPa | 0 mm | - | 48 W/m² | - |
| 1777508407 | 17.22° C | 49% | 1017.5 hPa | 0 mm | - | 48 W/m² | - |
| 1777508104 | 17.22° C | 50% | 1017.4 hPa | 0 mm | - | 86 W/m² | - |
| 1777507800 | 17.22° C | 49% | 1017.4 hPa | 0 mm | - | 95 W/m² | - |
| 1777507497 | 16.67° C | 53% | 1017.6 hPa | 0 mm | - | 114 W/m² | - |
| 1777507194 | 16.11° C | 53% | 1017.7 hPa | 0 mm | - | 103 W/m² | - |
| 1777506892 | 16.11° C | 51% | 1017.6 hPa | 0 mm | - | 72 W/m² | - |
| 1777506589 | 16.11° C | 50% | 1017.8 hPa | 0 mm | - | 143 W/m² | - |
| 1777506284 | 16.67° C | 52% | 1017.7 hPa | 0 mm | - | 140 W/m² | - |
| 1777505981 | 16.11° C | 51% | 1017.6 hPa | 0 mm | - | 123 W/m² | - |
| 1777505676 | 16.11° C | 50% | 1017.5 hPa | 0 mm | - | 93 W/m² | - |
* Rain latest hour (hover to see other rain measurements)
** Current wind speed in m/s (hover to see current wind gust speed)